When you browse on this site, cookies collect data to enhance your experience and personalize the content and advertising you see.
Visit our Privacy Policy to learn more. By continuing to use the site, you agree to this use of cookies and data.
EN

Hourly Weather Picardy

Today, 2 July, Thursday

Time Temperature Precipitation Wind Pressure Humidity
00:00 +17°C° 0 mm 2 mps 752 mmHg 87%
01:00 +16°C° 0.2 mm 2 mps 752 mmHg 90%
02:00 +16°C° 0.2 mm 3 mps 752 mmHg 92%
03:00 +14°C° 0.2 mm 3 mps 752 mmHg 95%
04:00 +14°C° 0.1 mm 3 mps 752 mmHg 94%
05:00 +14°C° 0.1 mm 4 mps 752 mmHg 93%
06:00 +14°C° 0.1 mm 4 mps 752 mmHg 92%
07:00 +15°C° 0 mm 4 mps 753 mmHg 86%
08:00 +17°C° 0 mm 4 mps 753 mmHg 79%
09:00 +18°C° 0 mm 4 mps 753 mmHg 73%
10:00 +19°C° 0.2 mm 5 mps 753 mmHg 69%
11:00 +20°C° 0.2 mm 5 mps 754 mmHg 66%
12:00 +21°C° 0.2 mm 5 mps 754 mmHg 62%
13:00 +20°C° 0.2 mm 5 mps 754 mmHg 64%
14:00 +20°C° 0.2 mm 5 mps 754 mmHg 66%
15:00 +20°C° 0.2 mm 5 mps 754 mmHg 67%
16:00 +19°C° 0 mm 5 mps 754 mmHg 68%
17:00 +19°C° 0 mm 5 mps 754 mmHg 69%
18:00 +19°C° 0 mm 4 mps 754 mmHg 70%
19:00 +17°C° 0 mm 4 mps 755 mmHg 77%
20:00 +14°C° 0 mm 3 mps 755 mmHg 84%
21:00 +12°C° 0 mm 3 mps 755 mmHg 90%
22:00 +12°C° 0 mm 3 mps 756 mmHg 92%
23:00 +11°C° 0 mm 3 mps 756 mmHg 93%

Tomorrow, 3 July, Friday

Time Temperature Precipitation Wind Pressure Humidity
00:00 +11°C° 0 mm 3 mps 756 mmHg 95%
01:00 +11°C° 0 mm 3 mps 756 mmHg 96%
02:00 +11°C° 0 mm 3 mps 756 mmHg 96%
03:00 +10°C° 0 mm 3 mps 756 mmHg 97%
04:00 +11°C° 0 mm 4 mps 756 mmHg 94%
05:00 +12°C° 0 mm 4 mps 757 mmHg 92%
06:00 +13°C° 0 mm 4 mps 757 mmHg 90%
07:00 +14°C° 0 mm 4 mps 757 mmHg 84%
08:00 +15°C° 0 mm 5 mps 758 mmHg 78%
09:00 +17°C° 0 mm 5 mps 758 mmHg 72%
10:00 +19°C° 0 mm 5 mps 758 mmHg 69%
11:00 +19°C° 0 mm 5 mps 758 mmHg 66%
12:00 +20°C° 0 mm 5 mps 758 mmHg 63%
13:00 +20°C° 0 mm 5 mps 758 mmHg 62%
14:00 +21°C° 0 mm 5 mps 758 mmHg 62%
15:00 +21°C° 0 mm 5 mps 758 mmHg 62%
16:00 +20°C° 0 mm 5 mps 758 mmHg 65%
17:00 +20°C° 0 mm 4 mps 758 mmHg 68%
18:00 +20°C° 0 mm 4 mps 758 mmHg 71%
19:00 +18°C° 0 mm 3 mps 758 mmHg 75%
20:00 +16°C° 0 mm 3 mps 758 mmHg 80%
21:00 +15°C° 0 mm 2 mps 758 mmHg 85%
22:00 +14°C° 0 mm 2 mps 758 mmHg 87%
23:00 +14°C° 0 mm 2 mps 758 mmHg 89%

Day after tomorrow, 4 July, Saturday

Time Temperature Precipitation Wind Pressure Humidity
00:00 +13°C° 0 mm 3 mps 758 mmHg 90%
01:00 +13°C° 0 mm 3 mps 758 mmHg 89%
02:00 +14°C° 0 mm 3 mps 758 mmHg 87%
03:00 +16°C° 0 mm 3 mps 758 mmHg 86%
04:00 +16°C° 0 mm 3 mps 758 mmHg 85%
05:00 +15°C° 0 mm 4 mps 758 mmHg 84%
06:00 +15°C° 0 mm 4 mps 758 mmHg 84%
07:00 +15°C° 0 mm 4 mps 758 mmHg 82%
08:00 +16°C° 0 mm 5 mps 758 mmHg 80%
09:00 +16°C° 0 mm 5 mps 757 mmHg 78%
10:00 +17°C° 0 mm 5 mps 757 mmHg 78%
11:00 +19°C° 0 mm 5 mps 757 mmHg 77%
12:00 +20°C° 0 mm 5 mps 757 mmHg 77%
13:00 +20°C° 0 mm 5 mps 757 mmHg 77%
14:00 +21°C° 0 mm 5 mps 757 mmHg 76%
15:00 +22°C° 0 mm 6 mps 757 mmHg 76%
16:00 +21°C° 0 mm 5 mps 757 mmHg 77%
17:00 +21°C° 0 mm 5 mps 756 mmHg 79%
18:00 +21°C° 0 mm 5 mps 756 mmHg 80%
19:00 +20°C° 0.1 mm 5 mps 756 mmHg 82%
20:00 +20°C° 0.1 mm 5 mps 757 mmHg 84%
21:00 +19°C° 0.1 mm 5 mps 757 mmHg 86%
22:00 +19°C° 0 mm 5 mps 757 mmHg 87%
23:00 +19°C° 0 mm 5 mps 756 mmHg 87%

5 July, Sunday

Time Temperature Precipitation Wind Pressure Humidity
00:00 +19°C° 0 mm 5 mps 756 mmHg 88%
01:00 +19°C° 0 mm 5 mps 756 mmHg 88%
02:00 +19°C° 0 mm 5 mps 756 mmHg 89%
03:00 +18°C° 0 mm 4 mps 756 mmHg 89%
04:00 +19°C° 0 mm 5 mps 756 mmHg 88%
05:00 +19°C° 0 mm 5 mps 756 mmHg 88%
06:00 +19°C° 0 mm 6 mps 756 mmHg 87%
07:00 +20°C° 0 mm 6 mps 756 mmHg 85%
08:00 +20°C° 0 mm 6 mps 756 mmHg 83%
09:00 +20°C° 0 mm 6 mps 756 mmHg 81%
10:00 +21°C° 0 mm 7 mps 756 mmHg 79%
11:00 +22°C° 0 mm 7 mps 756 mmHg 76%
12:00 +22°C° 0 mm 7 mps 756 mmHg 73%
13:00 +22°C° 0 mm 7 mps 756 mmHg 72%
14:00 +23°C° 0 mm 7 mps 756 mmHg 71%
15:00 +23°C° 0 mm 7 mps 756 mmHg 70%
16:00 +22°C° 0 mm 6 mps 756 mmHg 73%
17:00 +22°C° 0 mm 6 mps 756 mmHg 76%
18:00 +21°C° 0 mm 5 mps 755 mmHg 79%
19:00 +20°C° 0 mm 5 mps 756 mmHg 80%
20:00 +20°C° 0 mm 5 mps 756 mmHg 82%
21:00 +20°C° 0 mm 5 mps 756 mmHg 84%
22:00 +19°C° 0 mm 4 mps 756 mmHg 86%
23:00 +18°C° 0 mm 4 mps 756 mmHg 88%

6 July, Monday

Time Temperature Precipitation Wind Pressure Humidity
00:00 +17°C° 0 mm 4 mps 755 mmHg 91%
01:00 +15°C° 0 mm 4 mps 755 mmHg 91%
02:00 +15°C° 0 mm 4 mps 755 mmHg 92%
03:00 +14°C° 0 mm 4 mps 755 mmHg 92%
04:00 +14°C° 0 mm 5 mps 755 mmHg 88%
05:00 +14°C° 0 mm 5 mps 756 mmHg 84%
06:00 +14°C° 0 mm 5 mps 756 mmHg 80%
07:00 +14°C° 0 mm 6 mps 756 mmHg 75%
08:00 +15°C° 0 mm 6 mps 756 mmHg 70%
09:00 +16°C° 0 mm 6 mps 756 mmHg 65%
10:00 +16°C° 0 mm 6 mps 757 mmHg 63%
11:00 +17°C° 0 mm 6 mps 757 mmHg 61%
12:00 +19°C° 0 mm 6 mps 757 mmHg 58%
13:00 +19°C° 0 mm 6 mps 757 mmHg 58%
14:00 +19°C° 0 mm 6 mps 757 mmHg 57%
15:00 +19°C° 0 mm 6 mps 757 mmHg 56%
16:00 +19°C° 0 mm 6 mps 757 mmHg 59%
17:00 +17°C° 0 mm 5 mps 757 mmHg 63%
18:00 +17°C° 0 mm 4 mps 758 mmHg 66%
19:00 +15°C° 0 mm 4 mps 758 mmHg 74%
20:00 +13°C° 0 mm 3 mps 758 mmHg 82%
21:00 +11°C° 0 mm 3 mps 758 mmHg 90%
22:00 +11°C° 0 mm 3 mps 758 mmHg 92%
23:00 +10°C° 0 mm 3 mps 759 mmHg 93%

7 July, Tuesday

Time Temperature Precipitation Wind Pressure Humidity
00:00 +10°C° 0 mm 3 mps 759 mmHg 94%
01:00 +10°C° 0 mm 2 mps 759 mmHg 94%
02:00 +10°C° 0 mm 2 mps 759 mmHg 94%
03:00 +10°C° 0 mm 2 mps 759 mmHg 93%
04:00 +12°C° 0 mm 2 mps 759 mmHg 90%
05:00 +12°C° 0 mm 2 mps 759 mmHg 86%
06:00 +13°C° 0 mm 2 mps 759 mmHg 82%
07:00 +14°C° 0 mm 3 mps 760 mmHg 74%
08:00 +17°C° 0 mm 3 mps 760 mmHg 67%
09:00 +18°C° 0 mm 3 mps 760 mmHg 59%
10:00 +19°C° 0 mm 3 mps 760 mmHg 56%
11:00 +20°C° 0 mm 3 mps 760 mmHg 53%
12:00 +21°C° 0 mm 4 mps 760 mmHg 50%
13:00 +21°C° 0 mm 4 mps 760 mmHg 51%
14:00 +21°C° 0 mm 4 mps 760 mmHg 52%
15:00 +21°C° 0 mm 4 mps 761 mmHg 54%
16:00 +20°C° 0.1 mm 3 mps 760 mmHg 59%
17:00 +20°C° 0.1 mm 3 mps 760 mmHg 65%
18:00 +19°C° 0.1 mm 3 mps 760 mmHg 71%
19:00 +17°C° 0 mm 3 mps 761 mmHg 77%
20:00 +14°C° 0 mm 3 mps 761 mmHg 83%
21:00 +12°C° 0 mm 3 mps 761 mmHg 89%
22:00 +12°C° 0 mm 3 mps 761 mmHg 89%
23:00 +11°C° 0 mm 3 mps 761 mmHg 90%
Show more